FW9577 Weather Reports


Display with metric or nautical units.
time (UTC)temp
F
wind
direction
speed
MPH
gust
MPH
rain 1hr
in
rain 24hr
in
rain mn
in
humidity
%
barometer
mb
20260503043050 81 124 10.0 14.0 0.00 0.00 0.00 92 206.0
20260503041542 80 122 11.0 14.0 0.00 0.00 0.00 90 206.0
20260503040055 80 120 11.0 14.0 0.00 0.00 0.00 90 206.0
20260503034547 81 129 11.0 16.0 0.00 0.00 0.00 90 206.0
20260503033046 80 119 13.0 15.0 0.00 0.00 0.00 89 206.0
20260503031543 81 115 12.0 16.0 0.00 0.00 0.00 90 206.0
20260503030040 81 108 13.0 17.0 0.00 0.00 0.00 90 206.0
20260503024537 80 116 13.0 16.0 0.00 0.00 0.00 90 206.0
20260503023055 80 116 13.0 15.0 0.00 0.00 0.00 90 206.0
20260503021550 81 102 11.0 16.0 0.00 0.00 0.00 91 206.0
20260503020049 81 96 12.0 17.0 0.00 0.00 0.00 90 206.0
20260503014541 81 110 12.0 17.0 0.00 0.00 0.00 90 206.0
20260503013040 81 105 13.0 17.0 0.00 0.00 0.00 89 206.0
20260503011535 82 105 12.0 17.0 0.00 0.00 0.00 90 206.0
20260503010043 82 120 14.0 18.0 0.00 0.00 0.00 88 206.0
20260503004555 81 127 14.0 19.0 0.00 0.00 0.00 87 206.0
20260503003100 82 135 15.0 19.0 0.00 0.00 0.00 86 206.0
20260503001538 82 134 15.0 19.0 0.00 0.00 0.00 86 206.0
20260503000043 82 146 16.0 20.0 0.00 0.00 0.00 87 206.0
20260502234541 82 141 15.0 20.0 0.00 0.00 0.00 87 206.0
20260502233040 82 129 15.0 19.0 0.00 0.00 0.00 86 206.0
20260502231548 82 158 14.0 19.0 0.00 0.00 0.00 86 206.0
20260502230048 82 141 14.0 19.0 0.00 0.00 0.00 87 206.0
20260502224545 83 131 13.0 17.0 0.00 0.00 0.00 84 206.0
20260502223041 83 128 12.0 17.0 0.00 0.00 0.00 84 206.0
20260502221538 84 147 14.0 18.0 0.00 0.00 0.00 82 206.0
20260502220037 84 149 14.0 18.0 0.00 0.00 0.00 84 206.0
20260502214543 83 126 15.0 18.0 0.00 0.00 0.00 83 206.0
20260502213058 84 118 14.0 18.0 0.00 0.00 0.00 83 206.0
20260502211538 85 147 13.0 17.0 0.00 0.00 0.00 82 206.0
20260502210038 85 148 12.0 17.0 0.00 0.00 0.00 83 206.0
20260502204546 84 136 13.0 18.0 0.00 0.00 0.00 84 206.0
20260502203045 83 148 13.0 18.0 0.00 0.00 0.00 83 206.0
20260502201541 83 158 14.0 18.0 0.00 0.00 0.00 85 206.0
20260502200100 83 163 14.0 19.0 0.00 0.00 0.00 83 206.0
20260502194543 83 149 15.0 19.0 0.00 0.00 0.00 84 206.0
20260502193042 83 152 14.0 17.0 0.00 0.00 0.00 85 206.0
20260502191543 83 133 13.0 16.0 0.00 0.00 0.00 85 206.0
20260502190043 83 139 14.0 18.0 0.00 0.00 0.00 84 206.0
20260502184535 83 153 14.0 17.0 0.00 0.00 0.00 85 206.0
20260502183048 83 153 14.0 19.0 0.00 0.00 0.00 84 206.0
20260502181544 83 131 14.0 19.0 0.00 0.00 0.00 84 206.0
20260502163036 83 124 13.0 17.0 0.00 0.00 0.00 84 206.0
20260502161548 83 150 13.0 19.0 0.00 0.00 0.00 84 206.0
20260502151535 82 127 13.0 17.0 0.00 0.00 0.00 86 206.0
20260502123043 80 115 12.0 17.0 0.00 0.00 0.00 90 206.0
20260502121543 80 118 14.0 19.0 0.00 0.00 0.00 91 206.0
20260502114541 79 101 12.0 16.0 0.00 0.00 0.00 91 206.0
20260502113046 79 100 12.0 17.0 0.00 0.00 0.00 92 206.0
20260502111537 79 108 15.0 19.0 0.00 0.00 0.00 92 206.0
20260502110036 79 95 14.0 19.0 0.00 0.00 0.00 92 206.0
20260502104544 78 97 14.0 18.0 0.00 0.00 0.00 93 206.0
20260502103102 78 91 14.0 17.0 0.00 0.00 0.00 94 206.0
20260502101548 78 104 13.0 17.0 0.00 0.00 0.00 94 206.0
20260502070046 79 128 13.0 16.0 0.00 0.00 0.00 91 206.0
20260502064544 79 120 13.0 17.0 0.00 0.00 0.00 91 206.0
20260502063050 79 124 15.0 17.0 0.00 0.00 0.00 91 206.0
20260502061542 79 134 14.0 19.0 0.00 0.00 0.00 90 206.0
20260502060039 79 114 15.0 18.0 0.00 0.00 0.00 90 206.0
20260502054552 79 114 15.0 19.0 0.00 0.00 0.00 89 206.0
20260502053048 79 116 14.0 19.0 0.00 0.00 0.00 90 206.0
20260502051542 79 115 15.0 20.0 0.00 0.00 0.00 89 206.0
20260502050042 79 136 15.0 21.0 0.00 0.00 0.00 89 206.0
20260502044536 79 124 16.0 18.0 0.00 0.00 0.00 88 206.0